Tracking 28790 objects as of 19-Apr-2024
HD Live streaming from Space Station
objects crossing your sky now

STARLINK-3786

Track STARLINK-3786 now!
10-day predictions
STARLINK-3786 is classified as:


NORAD ID: 52263
Int'l Code: 2022-041C
Perigee: 546.0 km
Apogee: 547.8 km
Inclination: 53.2 °
Period: 95.4 minutes
Semi major axis: 6917 km
RCS: Unknown
Launch date: April 21, 2022
Source: United States (US)
Launch site: AIR FORCE EASTERN TEST RANGE (AFETR)
Your satellite tracking list
Your tracking list is empty




NASA's NSSDC Master Catalog

Two Line Element Set (TLE):
1 52263U 22041C   24109.82527168  .00007601  00000-0  49515-3 0  9993
2 52263  53.2174 326.0430 0001294  80.5728 279.5411 15.08839247111421
Source of the keplerian elements: AFSPC